Location: McFarlands Corners
(41.4117°N, 81.3382°W)
Time: 09:11:58
(UTC+00:00)

Vanguard 3 - Visible Passes

Search period start: 19 February 2026 00:00
Search period end: 01 March 2026 00:00
Orbit: 508 x 3205 km, 33.3° (Epoch: 19 February)

Date Brightness Start Highest point End Pass type
(mag) Time Alt. Az. Time Alt. Az. Time Alt. Az.
19 Feb 8.2 00:15:57 10° WSW 00:21:54 34° SSW 00:24:56 16° SE visible
20 Feb 8.3 01:06:21 10° WSW 01:10:55 24° SSW 01:11:58 22° S visible
20 Feb 8.5 23:42:45 10° WSW 23:49:55 38° SSW 23:54:27 10° SE visible
21 Feb 9.3 01:57:39 10° WSW 01:59:02 12° SW 01:59:02 12° SW visible
22 Feb 8.7 00:33:20 10° W 00:38:57 27° SSW 00:42:11 14° SSE visible
23 Feb 9.1 01:24:36 10° WSW 01:27:41 15° SW 01:29:17 13° SSW visible
24 Feb 9.0 00:00:01 10° W 00:06:55 30° SSW 00:11:25 10° SE visible
25 Feb 9.3 00:51:19 10° WSW 00:55:37 17° SW 00:58:55 10° S visible
25 Feb 9.3 23:26:27 10° W 23:34:45 33° SSW 23:39:57 10° SE visible
27 Feb 9.5 00:17:49 10° W 00:23:28 20° SW 00:27:33 10° S visible
28 Feb 9.7 23:44:04 10° W 23:51:13 23° SW 23:56:07 10° SSE visible
